1st Responders/1st Detectors/Storm Spotters Weather Summary for Estill County, KY

Forecast Maps


Reg. NEXRAD Animation


National Fire Danger: Day 1 & 2 Map

Current NWS Watch/Warnings

SPC Convective Day 1 Outlook


Day 2 Outlook

(Click images to enlarge|Page will refresh every 5 minutes)
UK Ag. Weather Center Desktop Severe Weather Service[HERE]
Estill County, KY Hazardous Weather Outlook Webcast
(9 AM to 9 PM Mon-Fri)
[Fast]
[Dial-up]


UKAWC 1st Detectors/1st Responders Precision Weather Forecast For ESTILL County, Kentucky
(based on the NWS County Digital Forecast)

ISSUED AT 20:00 UTC ON THURSDAY SEP 20 2018
DAY THURSDAY
EDT 3HR 5P 6P 7P
MAX/MIN -- -- 90°
TEMP 88° 85° 83°
SKY COVER 30% 24% 18%
Clouds
DEW PT 70° 70° 70°
RH 53% 58% 64%
POP 12HR -- -- --
RAIN/SNOW (liq.equ) -- -- --
SNOWFALL -- -- --
WIND SPEED(MPH) 2 2 2
WIND Gust(MPH) 6 6 6
WIND DIR S S S
DEW -- -- --
HeatIndex 94 90 87
Rain Showers -- -- --
Thunder Storm -- -- --
Fog -- -- --
WIND CHILL -- -- --
SPRAY COND
DRY COND
LIVESTOCK HEATSTRESS 80.45 78.95 78.21



DAY FRIDAY SATURDAY SUNDAY MONDAY TUESDAY WEDNESDAY
EDT 6HR 8P 9P 10P 11P MIDN 1A 2A 3A 4A 5A 6A 7A 8A 9A 10A 11A NOON 1P 2P 3P 4P 5P 6P 7P 8P 9P 10P 11P MIDN 1A 2A 3A 4A 5A 8A 11A 2P 5P 8P 2A 8A 2P 8P 2A 8A 2P 8P 2A 8A 2P 8P 2A 8A 2P 8P
MAX/MIN -- -- -- -- -- -- -- -- -- -- -- -- 68° -- -- -- -- -- -- -- -- -- -- 88° -- -- -- -- -- -- -- -- -- -- 63° -- -- 74° -- -- 61° 72° -- -- 61° 79° -- -- 63° 76° -- -- 65° 76° --
TEMP 79° 76° 74° 74° 74° 72° 72° 72° 72° 72° 70° 68° 68° 72° 76° 79° 83° 85° 88° 88° 86° 85° 81° 76° 76° 74° 74° 72° 72° 72° 70° 70° 70° 68° 63° 70° 72° 72° 67° 63° 61° 70° 67° 61° 63° 79° 70° 65° 65° 76° 70° 67° 65° 76° 67°
SKY COVER 12% 12% 11% 11% 18% 24% 31% 29% 26% 24% 21% 18% 15% 18% 19% 19% 24% 36% 41% 44% 50% 52% 50% 47% 45% 50% 60% 65% 66% 68% 69% 73% 83% 88% 88% 90% 93% 93% 93% 87% 89% 86% 77% 76% 82% 65% 70% 68% 75% 78% 67% 76% 72% 88% 77%
Clouds
DEW PT 70° 70° 70° 70° 70° 68° 68° 68° 68° 68° 67° 67° 67° 67° 67° 68° 68° 68° 68° 68° 68° 68° 68° 70° 70° 68° 68° 67° 67° 67° 67° 67° 67° 67° 61° 61° 63° 63° 61° 61° 59° 63° 61° 59° 61° 67° 67° 63° 63° 67° 65° 65° 65° 67° 63°
RH 73% 79% 84% 87% 87% 86% 87% 87% 87% 90% 93% 93% 93% 87% 76% 69% 61% 57% 53% 53% 54% 58% 66% 78% 82% 81% 84% 84% 84% 87% 89% 90% 89% 93% 93% 73% 73% 70% 84% 96% 96% 76% 83% 93% 93% 66% 87% 92% 96% 73% 84% 93% 96% 76% 87%
POP 12HR 5% -- -- -- -- -- -- -- -- -- -- -- 2% -- -- -- -- -- -- -- -- -- -- -- 37% -- -- -- -- -- -- -- -- -- 56% -- -- -- 47% -- 59% -- 59% -- 40% -- 35% -- 44% -- 49% -- 60% -- 59%
RAIN/SNOW (liq.equ) 0.00in -- -- -- -- -- 0.00in -- -- -- -- -- 0.00in -- -- -- -- -- 0.00in -- -- -- -- -- 0.04in -- -- -- -- -- 0.03in -- -- -- 0.09in -- 0.02in -- 0.08in -- -- -- -- -- -- -- -- -- -- -- -- -- -- -- --
SNOWFALL 0in -- -- -- -- -- 0in -- -- -- -- -- 0in -- -- -- -- -- 0in -- -- -- -- -- 0in -- -- -- -- -- 0in -- -- -- 0in -- 0in -- 0in -- -- -- -- -- -- -- -- -- -- -- -- -- -- -- --
WIND SPEED(MPH) 2 2 2 2 5 5 6 6 7 7 7 7 7 8 9 9 9 9 8 7 7 7 6 6 5 5 2 2 2 1 1 1 2 2 5 2 5 5 2 2 2 6 5 2 2 6 5 5 5 7 6 5 6 7 5
WIND DIR SE SE SE SE S S S S S S S S S S SW SW SW SW SW SW SW SW SW SW SW SW SW SW SW W W W NW N NE NE NE N NE NE NE NE E E E S SE SE S S S S S W W
HeatIndex 79 76 74 74 74 72 72 72 72 72 70 68 68 72 76 82 87 90 92 92 91 88 84 76 76 74 74 72 72 72 70 70 70 68 63 70 72 72 67 63 61 70 67 61 63 79 70 65 65 76 70 67 65 76 67
Rain Showers -- -- -- -- -- -- -- -- -- -- -- -- -- -- -- -- -- Slight Chance Slight Chance Chance Chance Chance Chance Chance Chance Chance Chance Chance Chance Chance Chance Chance Chance Likely Chance Chance Chance Chance Chance Chance Likely Chance Chance Chance Chance Chance Chance Chance Chance Chance Chance Chance Chance Chance Chance
Thunder Storm -- -- -- -- -- -- -- -- -- -- -- -- -- -- -- -- -- -- -- -- -- -- -- -- -- Slight Chance Slight Chance Slight Chance Slight Chance Slight Chance -- -- -- -- -- -- Slight Chance Slight Chance Chance -- -- -- -- -- -- Slight Chance Slight Chance -- -- -- -- -- -- Slight Chance --
Fog -- -- -- -- -- Areas of Areas of Areas of Areas of Areas of Areas of Areas of Areas of -- -- -- -- -- -- -- -- -- -- -- -- -- -- -- -- -- -- -- -- -- -- -- -- -- -- Patchy Patchy -- -- -- Patchy -- -- -- -- -- -- -- Patchy -- --
WIND CHILL -- -- -- -- -- -- -- -- -- -- -- -- -- -- -- -- -- -- -- -- -- -- -- -- -- -- -- -- -- -- -- -- -- -- -- -- -- -- -- -- -- -- -- -- -- -- -- -- -- -- -- -- -- -- --
SPRAY COND
DRY COND
LIVESTOCK HEATSTRESS 76.00 74.01 72.66 72.91 72.91 70.98 71.06 71.06 71.06 71.27 69.57 67.65 67.65 71.06 73.73 75.56 77.81 78.80 80.45 80.45 79.12 78.95 76.85 73.92 74.30 72.41 72.66 70.84 70.84 71.06 69.32 69.38 69.32 67.65 62.84 68.34 70.04 69.82 66.28 62.91 60.95 68.52 66.23 60.92 62.84 75.22 69.20 64.73 64.86 73.45 69.01 66.68 64.86 73.73 66.41

Click on individual weather variable above in left-hand column (ie., TEMP, RH, QPF 12HR) to view state forecast maps






NWS 48 Hr. Forecast Maps,

Regional Hourly Observations For ESTILL County, Kentucky
Issued at 500 PM EDT THU SEP 20 2018
NORTHEAST KENTUCKY
  
CITY           SKY/WX    TMP DP  RH WIND       PRES   REMARKS
LEXINGTON      FAIR      90  69  50 VRB3      30.06F HX  94           
COVINGTON      FAIR      89  70  53 SW10      30.03F HX  94           
FRANKFORT      FAIR      91  68  46 S10       30.03F HX  95           


Current NOWCAST not available:
Nowcasts are not issued routinely during fair weather. Only when
precipitation or other significant weather is occuring in this county will these
forecasts be issued. Currently, there is no short term forecast in effect.


Fire Weather Forecast For ESTILL County, KY
Provided by the National Weather Service:

Issued at: Thu Sep 20 16:05:01 EDT 2018

Clay City, Stanton, Frenchburg, Brodhead, Mount Vernon, McKee, 
Annville, Burnside, Somerset, London, Monticello, Stearns, 
Whitley City, Corbin, Williamsburg, Barbourville, Middlesboro, 
Pineville, Cumberland, Harlan, Sandy Hook, West Liberty, 
Paintsville, Campton, Salyersville, Prestonsburg, Wheelwright, 
Beattyville, Jackson, Hindman, Pippa Passes, Booneville, Hazard, 
Manchester, Hyden, Jenkins, Whitesburg, Inez, Coal Run, 
Elkhorn City, Pikeville, and South Williamson
500 AM EDT Thu Sep 20 2018

                      Today        Tonight      Fri          

Cloud Cover           MClear       MClear       MClear       
Chance precip (%)     0            0            30           
Precip type           None         None         showers      
Temp (24H TREND)      87-90 (+2)   64-71 (+4)   85-88        
Rh % (24H TREND)      46-51 (+1)   84-100 (+1)  48-53        
20ftwnd-AM(mph)       Lgt/Var                   SW 5-9 G15   
20ftwnd-PM(mph)       Lgt/Var      Lgt/Var      SW 4-8 G15   
Precip duration                                 1            
Precip begin                                                 
Precip end                                                   
Precip amount         0.00         0.00         0.01         
LAL                   1            1            2            
Haines Index (MID)    3                         3            
Mixing hgt(ft-AGL)    6100                      7100         
Transport wnd (mph)   SW  3                     SW 17        
Vent rate (kt-ft)     18294                     109150       
ADI Early             19 Gen Poor  2 Very Poor  76 Good      
ADI Late              28 Fair      5 Very Poor  82 Good      
Max LVORI Early       8            6            6            
Max LVORI Late        3            7            3            

REMARKS...RANGES OF MIN T EXCEEDING 8 DEGREES & RANGES OF MAX RH        
EXCEEDING 10% INDICATE THE LIKELIHOOD OF THERMAL BELTS. ADI IS        
ATMOSPHERIC DISPERSION INDEX BY LAVDAS. DISPERSION INDEX IS        
MAGNITUDE OF VENT RATE DIVIDED BY 1000.


SPC's Fire Weather Web Tool (Excellent!), SPC's Fire Weather Outlooks, NWS Fire Weather WEB, Fire Danger Class Map,
Keetch-Byram Drought Index, ROMAN Web, Haines Index ,
WFAS's 10-hr Dead Fuel Moist., WFAS's 100-hr Dead Fuel Moist., Probablity of Ignition, Visual blackness Map, Palmer Drought Index, HPC's Rainfall Forecast Maps


Hazardous Weather Outlook For ESTILL County, Kentucky
423 PM EDT Thu Sep 20 2018

 DAY ONE  Tonight.

No hazardous weather is expected at this time.

 DAYS TWO THROUGH SEVEN  Friday through Wednesday.

Thunderstorms will be possible at times Friday through Wednesday,
mainly during the afternoon and early evening hours. If
thunderstorms occur on Friday afternoon or Friday evening, a few 
of them may contain strong winds gusts.

 SPOTTER INFORMATION STATEMENT  

Spotter activation is not anticipated.

Latest ESTILL County, Kentucky Watches, Warnings and Advisories.
Additional Drought Info.: UKAWC Drought Page, Kentucky Drought Watch


7-Day Forecast For ESTILL County, KY

TONIGHT
Partly cloudy. Lows around 70. Light winds.

FRIDAY
Warm. Mostly sunny. A slight chance of showers and thunderstorms in the afternoon. A chance of showers and a slight chance of thunderstorms late. Highs in the upper 80s. Southwest winds around 10 mph. Chance of rain 40 percent.

FRIDAY NIGHT
Mostly cloudy. A chance of showers and a slight chance of thunderstorms in the evening, then a chance of showers late. Lows in the mid 60s. Light winds. Chance of rain 50 percent.

SATURDAY
Cloudy. A chance of showers and a slight chance of thunderstorms in the morning, then a chance of showers and thunderstorms in the afternoon. Highs in the mid 70s. Light winds. Chance of rain 50 percent.

SATURDAY NIGHT
Cloudy. Showers likely and a chance of thunderstorms in the evening, then showers likely late. Patchy valley fog late. Lows around 60. Light winds. Chance of rain 60 percent.

SUNDAY
Cloudy with showers likely and a slight chance of thunderstorms. Highs around 70. Chance of rain 60 percent.

SUNDAY NIGHT
Mostly cloudy with a 50 percent chance of showers. Patchy valley fog. Lows in the lower 60s.

MONDAY
Mostly cloudy with a 50 percent chance of showers and thunderstorms. Highs in the upper 70s.

MONDAY NIGHT
Mostly cloudy with a chance of showers and a slight chance of thunderstorms. Lows in the mid 60s. Chance of rain 30 percent.

TUESDAY
Mostly cloudy with a 40 percent chance of showers and thunderstorms. Highs in the upper 70s.

TUESDAY NIGHT
Mostly cloudy with showers likely and a slight chance of thunderstorms. Patchy valley fog. Lows in the mid 60s. Chance of rain 60 percent.

WEDNESDAY
Mostly cloudy with showers likely and a slight chance of thunderstorms. Highs in the lower 70s. Chance of rain 60 percent.

WEDNESDAY NIGHT
Mostly cloudy with a 40 percent chance of showers. Lows in the mid 50s.

THURSDAY
Mostly sunny. Highs in the lower 70s.

Ag Weather Center, Department of Biosystems & Agricultural Engineering, University of Kentucky